| time (UTC) | temp F | wind direction | speed knots | gust knots | rain 1hr in | rain 24hr in | rain mn in | humidity % | barometer mb |
| 20260509192232 | 65 | 313 | 1.7 | 5.2 | 0.00 | 0.00 | 0.00 | 56 | 1021.8 |
| 20260509191740 | 65 | 315 | 2.6 | 6.1 | 0.00 | 0.00 | 0.00 | 58 | 1021.9 |
| 20260509191228 | 65 | 255 | 3.5 | 6.1 | 0.00 | 0.00 | 0.00 | 57 | 1021.9 |
| 20260509190736 | 65 | 55 | 1.7 | 7.0 | 0.00 | 0.00 | 0.00 | 58 | 1021.8 |
| 20260509190224 | 65 | 277 | 2.6 | 7.0 | 0.00 | 0.00 | 0.00 | 57 | 1021.8 |
| 20260509185731 | 65 | 26 | 1.7 | 7.0 | 0.00 | 0.00 | 0.00 | 57 | 1021.9 |
| 20260509185239 | 66 | 342 | 0.9 | 6.1 | 0.00 | 0.00 | 0.00 | 58 | 1021.9 |
| 20260509184807 | 66 | 9 | 0.9 | 4.3 | 0.00 | 0.00 | 0.00 | 60 | 1021.9 |
| 20260509184735 | 66 | 9 | 0.9 | 4.3 | 0.00 | 0.00 | 0.00 | 60 | 1021.9 |
| 20260509184303 | 65 | 31 | 0.9 | 4.3 | 0.00 | 0.00 | 0.00 | 58 | 1021.9 |
| 20260509184231 | 65 | 31 | 0.9 | 4.3 | 0.00 | 0.00 | 0.00 | 58 | 1021.9 |
| 20260509183759 | 65 | 336 | 1.7 | 4.3 | 0.00 | 0.00 | 0.00 | 60 | 1022.0 |
| 20260509183727 | 65 | 336 | 1.7 | 4.3 | 0.00 | 0.00 | 0.00 | 60 | 1022.0 |
| 20260509183235 | 64 | 319 | 0.0 | 4.3 | 0.00 | 0.00 | 0.00 | 60 | 1021.9 |
| 20260509182722 | 64 | 296 | 1.7 | 4.3 | 0.00 | 0.00 | 0.00 | 61 | 1022.0 |
| 20260509182234 | 64 | 270 | 0.9 | 3.5 | 0.00 | 0.00 | 0.00 | 60 | 1022.0 |
| 20260509181802 | 64 | 302 | 1.7 | 4.3 | 0.00 | 0.00 | 0.00 | 61 | 1022.0 |
| 20260509181730 | 64 | 302 | 1.7 | 4.3 | 0.00 | 0.00 | 0.00 | 61 | 1022.0 |
| 20260509181238 | 63 | 263 | 1.7 | 4.3 | 0.00 | 0.00 | 0.00 | 61 | 1022.0 |
| 20260509180726 | 63 | 314 | 0.9 | 6.1 | 0.00 | 0.00 | 0.00 | 62 | 1022.2 |
| 20260509180234 | 63 | 327 | 0.9 | 6.1 | 0.00 | 0.00 | 0.00 | 62 | 1022.1 |
| 20260509175721 | 63 | 48 | 1.7 | 3.5 | 0.00 | 0.00 | 0.00 | 63 | 1022.2 |
| 20260509175309 | 62 | 350 | 1.7 | 4.3 | 0.00 | 0.00 | 0.00 | 64 | 1022.2 |
| 20260509175237 | 62 | 350 | 1.7 | 4.3 | 0.00 | 0.00 | 0.00 | 64 | 1022.2 |
| 20260509174725 | 62 | 32 | 2.6 | 4.3 | 0.00 | 0.00 | 0.00 | 64 | 1022.3 |
| 20260509174233 | 62 | 279 | 2.6 | 4.3 | 0.00 | 0.00 | 0.00 | 65 | 1022.1 |
| 20260509173721 | 62 | 360 | 2.6 | 6.1 | 0.00 | 0.00 | 0.00 | 67 | 1022.2 |
| 20260509173309 | 62 | 234 | 2.6 | 6.1 | 0.00 | 0.00 | 0.00 | 68 | 1022.2 |
| 20260509172725 | 61 | 292 | 1.7 | 4.3 | 0.00 | 0.00 | 0.00 | 68 | 1022.1 |
| 20260509172252 | 61 | 292 | 0.0 | 7.0 | 0.00 | 0.00 | 0.00 | 69 | 1022.3 |
| 20260509171809 | 60 | 19 | 2.6 | 7.0 | 0.00 | 0.00 | 0.00 | 69 | 1022.3 |
| 20260509171737 | 60 | 19 | 2.6 | 7.0 | 0.00 | 0.00 | 0.00 | 69 | 1022.3 |
| 20260509171225 | 60 | 254 | 2.6 | 3.5 | 0.00 | 0.00 | 0.00 | 70 | 1022.2 |
| 20260509170737 | 60 | 282 | 1.7 | 3.5 | 0.00 | 0.00 | 0.00 | 70 | 1022.2 |
| 20260509170225 | 60 | 260 | 2.6 | 3.5 | 0.00 | 0.00 | 0.00 | 71 | 1022.0 |
| 20260509165811 | 60 | 290 | 0.9 | 5.2 | 0.00 | 0.00 | 0.00 | 71 | 1022.2 |
| 20260509165228 | 61 | 248 | 3.5 | 5.2 | 0.00 | 0.00 | 0.00 | 70 | 1022.5 |
| 20260509164736 | 61 | 304 | 1.7 | 3.5 | 0.00 | 0.00 | 0.00 | 70 | 1022.6 |
| 20260509164224 | 61 | 346 | 1.7 | 3.5 | 0.00 | 0.00 | 0.00 | 70 | 1022.7 |
| 20260509163811 | 60 | 109 | 0.9 | 2.6 | 0.00 | 0.00 | 0.00 | 69 | 1022.6 |
| 20260509163227 | 60 | 77 | 0.9 | 2.6 | 0.00 | 0.00 | 0.00 | 69 | 1022.6 |
| 20260509162734 | 60 | 195 | 0.9 | 1.7 | 0.00 | 0.00 | 0.00 | 69 | 1022.6 |
| 20260509162222 | 60 | 96 | 0.9 | 2.6 | 0.00 | 0.00 | 0.00 | 69 | 1022.5 |
| 20260509161730 | 60 | 49 | 0.0 | 3.5 | 0.00 | 0.00 | 0.00 | 71 | 1022.5 |
| 20260509161221 | 60 | 99 | 1.7 | 2.6 | 0.00 | 0.00 | 0.00 | 71 | 1022.7 |
| 20260509160729 | 59 | 102 | 0.0 | 1.7 | 0.00 | 0.00 | 0.00 | 72 | 1022.7 |
| 20260509160237 | 59 | 144 | 0.9 | 1.7 | 0.00 | 0.00 | 0.00 | 73 | 1022.7 |
| 20260509155724 | 58 | 105 | 0.9 | 1.7 | 0.00 | 0.00 | 0.00 | 73 | 1022.9 |
| 20260509155232 | 58 | 104 | 0.9 | 1.7 | 0.00 | 0.00 | 0.00 | 74 | 1022.8 |
| 20260509154740 | 58 | 355 | 0.0 | 1.7 | 0.00 | 0.00 | 0.00 | 74 | 1022.9 |
| 20260509154228 | 58 | 266 | 0.9 | 2.6 | 0.00 | 0.00 | 0.00 | 74 | 1022.9 |
| 20260509153736 | 58 | 113 | 0.9 | 2.6 | 0.00 | 0.00 | 0.00 | 75 | 1022.8 |
| 20260509153224 | 57 | 86 | 0.0 | 1.7 | 0.00 | 0.00 | 0.00 | 76 | 1022.8 |
| 20260509152731 | 57 | 119 | 0.0 | 1.7 | 0.00 | 0.00 | 0.00 | 76 | 1022.7 |
| 20260509152222 | 57 | 134 | 1.7 | 2.6 | 0.00 | 0.00 | 0.00 | 77 | 1022.7 |
| 20260509151809 | 57 | 120 | 0.9 | 2.6 | 0.00 | 0.00 | 0.00 | 76 | 1022.8 |
| 20260509151738 | 57 | 120 | 0.9 | 2.6 | 0.00 | 0.00 | 0.00 | 76 | 1022.8 |
| 20260509151226 | 56 | 190 | 0.0 | 1.7 | 0.00 | 0.00 | 0.00 | 79 | 1023.2 |
| 20260509150732 | 56 | 134 | 0.0 | 1.7 | 0.00 | 0.00 | 0.00 | 79 | 1023.2 |
| 20260509150226 | 56 | 89 | 0.0 | 1.7 | 0.00 | 0.00 | 0.00 | 80 | 1023.2 |
| 20260509145731 | 55 | 89 | 0.0 | 1.7 | 0.00 | 0.00 | 0.00 | 82 | 1023.3 |
| 20260509145259 | 54 | 89 | 0.0 | 2.6 | 0.00 | 0.00 | 0.00 | 83 | 1023.5 |
| 20260509144736 | 54 | 72 | 0.9 | 3.5 | 0.00 | 0.00 | 0.00 | 84 | 1023.4 |
| 20260509144304 | 53 | 94 | 0.9 | 3.5 | 0.00 | 0.00 | 0.00 | 85 | 1023.3 |
| 20260509143740 | 53 | 84 | 0.9 | 2.6 | 0.00 | 0.00 | 0.00 | 85 | 1023.3 |
| 20260509143228 | 53 | 84 | 0.9 | 1.7 | 0.00 | 0.00 | 0.00 | 85 | 1023.4 |
| 20260509142755 | 52 | 83 | 0.0 | 0.0 | 0.00 | 0.00 | 0.00 | 85 | 1023.4 |
| 20260509142723 | 52 | 83 | 0.0 | 0.0 | 0.00 | 0.00 | 0.00 | 85 | 1023.4 |
| 20260509142310 | 52 | 124 | 0.0 | 0.0 | 0.00 | 0.00 | 0.00 | 86 | 1023.4 |
| 20260509141727 | 51 | 194 | 0.0 | 0.0 | 0.00 | 0.00 | 0.00 | 86 | 1023.5 |
| 20260509141235 | 51 | 194 | 0.0 | 0.0 | 0.00 | 0.00 | 0.00 | 87 | 1023.5 |
| 20260509140727 | 50 | 194 | 0.0 | 0.0 | 0.00 | 0.00 | 0.00 | 88 | 1023.4 |
| 20260509140255 | 49 | 137 | 0.0 | 0.0 | 0.00 | 0.00 | 0.00 | 89 | 1023.5 |
| 20260509140223 | 49 | 137 | 0.0 | 0.0 | 0.00 | 0.00 | 0.00 | 89 | 1023.5 |
| 20260509135729 | 49 | 137 | 0.0 | 0.0 | 0.00 | 0.00 | 0.00 | 92 | 1023.4 |
| 20260509135237 | 48 | 137 | 0.0 | 0.0 | 0.00 | 0.00 | 0.00 | 92 | 1023.5 |
| 20260509134805 | 47 | 137 | 0.0 | 0.0 | 0.00 | 0.00 | 0.00 | 92 | 1023.5 |
| 20260509134733 | 47 | 137 | 0.0 | 0.0 | 0.00 | 0.00 | 0.00 | 92 | 1023.5 |
| 20260509134221 | 47 | 138 | 0.0 | 0.0 | 0.00 | 0.00 | 0.00 | 92 | 1023.6 |
| 20260509133809 | 46 | 137 | 0.0 | 0.0 | 0.00 | 0.00 | 0.00 | 93 | 1023.5 |
| 20260509133226 | 46 | 137 | 0.0 | 0.0 | 0.00 | 0.00 | 0.00 | 93 | 1023.5 |
| 20260509132733 | 46 | 138 | 0.0 | 0.0 | 0.00 | 0.00 | 0.00 | 93 | 1023.6 |
| 20260509132221 | 46 | 137 | 0.0 | 0.0 | 0.00 | 0.00 | 0.00 | 93 | 1023.6 |
| 20260509131729 | 46 | 138 | 0.0 | 0.0 | 0.00 | 0.00 | 0.00 | 93 | 1023.5 |
| 20260509131237 | 46 | 138 | 0.0 | 0.0 | 0.00 | 0.00 | 0.00 | 92 | 1023.5 |
| 20260509130725 | 46 | 137 | 0.0 | 0.0 | 0.00 | 0.00 | 0.00 | 92 | 1023.4 |
| 20260509130237 | 46 | 137 | 0.0 | 0.0 | 0.00 | 0.00 | 0.00 | 92 | 1023.3 |
| 20260509125724 | 46 | 137 | 0.0 | 0.0 | 0.00 | 0.00 | 0.00 | 93 | 1023.4 |
| 20260509125232 | 46 | 138 | 0.0 | 0.0 | 0.00 | 0.00 | 0.00 | 92 | 1023.4 |
| 20260509124800 | 46 | 137 | 0.0 | 0.0 | 0.00 | 0.00 | 0.00 | 92 | 1023.4 |
| 20260509124256 | 46 | 137 | 0.0 | 0.0 | 0.00 | 0.00 | 0.00 | 91 | 1023.3 |
| 20260509124224 | 46 | 137 | 0.0 | 0.0 | 0.00 | 0.00 | 0.00 | 91 | 1023.3 |
| 20260509123732 | 46 | 137 | 0.0 | 0.0 | 0.00 | 0.00 | 0.00 | 90 | 1023.3 |
| 20260509123239 | 46 | 137 | 0.0 | 0.0 | 0.00 | 0.00 | 0.00 | 90 | 1023.3 |
| 20260509122727 | 46 | 137 | 0.0 | 0.0 | 0.00 | 0.00 | 0.00 | 90 | 1023.4 |
| 20260509122233 | 47 | 137 | 0.0 | 0.0 | 0.00 | 0.00 | 0.00 | 90 | 1023.4 |
| 20260509121721 | 47 | 138 | 0.0 | 0.0 | 0.00 | 0.00 | 0.00 | 91 | 1023.5 |
| 20260509121229 | 47 | 137 | 0.0 | 0.0 | 0.00 | 0.00 | 0.00 | 90 | 1023.6 |
| 20260509120736 | 47 | 137 | 0.0 | 0.0 | 0.00 | 0.00 | 0.00 | 89 | 1023.6 |
| 20260509120228 | 48 | 137 | 0.0 | 0.0 | 0.00 | 0.00 | 0.00 | 90 | 1023.5 |
| 20260509115735 | 48 | 137 | 0.0 | 0.0 | 0.00 | 0.00 | 0.00 | 90 | 1023.5 |
| 20260509115223 | 48 | 137 | 0.0 | 0.0 | 0.00 | 0.00 | 0.00 | 89 | 1023.6 |
| 20260509114731 | 48 | 137 | 0.0 | 0.0 | 0.00 | 0.00 | 0.00 | 90 | 1023.6 |
| 20260509114239 | 48 | 137 | 0.0 | 0.0 | 0.00 | 0.00 | 0.00 | 90 | 1023.7 |
| 20260509113727 | 49 | 137 | 0.0 | 0.0 | 0.00 | 0.00 | 0.00 | 90 | 1023.6 |
| 20260509113235 | 49 | 137 | 0.0 | 0.0 | 0.00 | 0.00 | 0.00 | 91 | 1023.6 |
| 20260509112722 | 49 | 138 | 0.0 | 0.0 | 0.00 | 0.00 | 0.00 | 90 | 1023.6 |
| 20260509112230 | 49 | 137 | 0.0 | 0.0 | 0.00 | 0.00 | 0.00 | 90 | 1023.6 |
| 20260509111757 | 49 | 138 | 0.0 | 0.0 | 0.00 | 0.00 | 0.00 | 89 | 1023.6 |
| 20260509111254 | 49 | 137 | 0.0 | 0.0 | 0.00 | 0.00 | 0.00 | 88 | 1023.7 |
| 20260509110811 | 49 | 137 | 0.0 | 0.0 | 0.00 | 0.00 | 0.00 | 89 | 1023.8 |
| 20260509110307 | 50 | 137 | 0.0 | 0.0 | 0.00 | 0.00 | 0.00 | 89 | 1023.8 |
| 20260509105726 | 50 | 137 | 0.0 | 0.0 | 0.00 | 0.00 | 0.00 | 88 | 1023.7 |
| 20260509105234 | 50 | 137 | 0.0 | 0.0 | 0.00 | 0.00 | 0.00 | 88 | 1023.9 |
| 20260509104801 | 50 | 137 | 0.0 | 0.0 | 0.00 | 0.00 | 0.00 | 87 | 1023.9 |
| 20260509104256 | 51 | 137 | 0.0 | 0.0 | 0.00 | 0.00 | 0.00 | 87 | 1023.8 |
| 20260509103753 | 51 | 137 | 0.0 | 0.0 | 0.00 | 0.00 | 0.00 | 87 | 1023.9 |
| 20260509103229 | 51 | 137 | 0.0 | 0.0 | 0.00 | 0.00 | 0.00 | 86 | 1023.8 |
| 20260509102736 | 51 | 137 | 0.0 | 0.0 | 0.00 | 0.00 | 0.00 | 86 | 1023.9 |
| 20260509102305 | 52 | 137 | 0.0 | 0.0 | 0.00 | 0.00 | 0.00 | 86 | 1023.9 |
| 20260509101740 | 52 | 138 | 0.0 | 0.0 | 0.00 | 0.00 | 0.00 | 86 | 1023.8 |
| 20260509101228 | 52 | 137 | 0.0 | 0.0 | 0.00 | 0.00 | 0.00 | 85 | 1023.9 |
| 20260509100736 | 52 | 137 | 0.0 | 0.0 | 0.00 | 0.00 | 0.00 | 85 | 1023.8 |
| 20260509100303 | 52 | 137 | 0.0 | 0.0 | 0.00 | 0.00 | 0.00 | 85 | 1024.0 |
| 20260509095759 | 52 | 137 | 0.0 | 0.0 | 0.00 | 0.00 | 0.00 | 85 | 1024.1 |
| 20260509095727 | 52 | 137 | 0.0 | 0.0 | 0.00 | 0.00 | 0.00 | 85 | 1024.1 |
| 20260509095255 | 52 | 137 | 0.0 | 0.0 | 0.00 | 0.00 | 0.00 | 85 | 1024.0 |
| 20260509095223 | 52 | 137 | 0.0 | 0.0 | 0.00 | 0.00 | 0.00 | 85 | 1024.0 |
| 20260509094731 | 52 | 137 | 0.0 | 0.0 | 0.00 | 0.00 | 0.00 | 85 | 1024.0 |
| 20260509094239 | 52 | 137 | 0.0 | 0.0 | 0.00 | 0.00 | 0.00 | 85 | 1024.1 |
| 20260509093727 | 52 | 137 | 0.0 | 0.0 | 0.00 | 0.00 | 0.00 | 85 | 1024.1 |
| 20260509093235 | 52 | 137 | 0.0 | 0.0 | 0.00 | 0.00 | 0.00 | 84 | 1024.1 |
| 20260509092726 | 52 | 137 | 0.0 | 0.0 | 0.00 | 0.00 | 0.00 | 84 | 1024.1 |
| 20260509092253 | 52 | 137 | 0.0 | 0.0 | 0.00 | 0.00 | 0.00 | 84 | 1024.2 |
| 20260509091730 | 52 | 138 | 0.0 | 0.0 | 0.00 | 0.00 | 0.00 | 84 | 1024.2 |
| 20260509091258 | 52 | 137 | 0.0 | 0.0 | 0.00 | 0.00 | 0.00 | 84 | 1024.3 |
| 20260509090734 | 52 | 137 | 0.0 | 0.0 | 0.00 | 0.00 | 0.00 | 84 | 1024.3 |
| 20260509090222 | 52 | 137 | 0.0 | 0.0 | 0.00 | 0.00 | 0.00 | 84 | 1024.3 |
| 20260509085730 | 52 | 137 | 0.0 | 0.0 | 0.00 | 0.00 | 0.00 | 84 | 1024.3 |
| 20260509085237 | 52 | 137 | 0.0 | 0.0 | 0.00 | 0.00 | 0.00 | 84 | 1024.3 |
| 20260509084805 | 52 | 137 | 0.0 | 0.0 | 0.00 | 0.00 | 0.00 | 84 | 1024.3 |
| 20260509084221 | 52 | 137 | 0.0 | 0.0 | 0.00 | 0.00 | 0.00 | 84 | 1024.3 |
| 20260509083809 | 52 | 137 | 0.0 | 0.0 | 0.00 | 0.00 | 0.00 | 84 | 1024.4 |
| 20260509083737 | 52 | 137 | 0.0 | 0.0 | 0.00 | 0.00 | 0.00 | 84 | 1024.4 |
| 20260509083225 | 52 | 137 | 0.0 | 0.0 | 0.00 | 0.00 | 0.00 | 84 | 1024.4 |
| 20260509082732 | 52 | 138 | 0.0 | 0.0 | 0.00 | 0.00 | 0.00 | 84 | 1024.4 |
| 20260509082224 | 51 | 137 | 0.0 | 0.0 | 0.00 | 0.00 | 0.00 | 84 | 1024.4 |
| 20260509081732 | 51 | 137 | 0.0 | 0.0 | 0.00 | 0.00 | 0.00 | 84 | 1024.5 |
| 20260509081240 | 51 | 137 | 0.0 | 0.0 | 0.00 | 0.00 | 0.00 | 84 | 1024.4 |
| 20260509080728 | 51 | 137 | 0.0 | 0.0 | 0.00 | 0.00 | 0.00 | 84 | 1024.4 |
| 20260509080236 | 51 | 137 | 0.0 | 0.0 | 0.00 | 0.00 | 0.00 | 85 | 1024.4 |
| 20260509075723 | 51 | 137 | 0.0 | 0.0 | 0.00 | 0.00 | 0.00 | 85 | 1024.3 |
| 20260509075326 | 51 | 141 | 0.0 | 0.0 | 0.00 | 0.00 | 0.00 | 85 | 1024.4 |
| 20260509075240 | 51 | 141 | 0.0 | 0.0 | 0.00 | 0.00 | 0.00 | 85 | 1024.4 |
| 20260509074804 | 51 | 141 | 0.0 | 0.0 | 0.00 | 0.00 | 0.00 | 85 | 1024.4 |
| 20260509074732 | 51 | 141 | 0.0 | 0.0 | 0.00 | 0.00 | 0.00 | 85 | 1024.4 |
| 20260509074239 | 51 | 141 | 0.0 | 0.0 | 0.00 | 0.00 | 0.00 | 85 | 1024.4 |
| 20260509073807 | 51 | 141 | 0.0 | 0.0 | 0.00 | 0.00 | 0.00 | 86 | 1024.3 |
| 20260509073735 | 51 | 141 | 0.0 | 0.0 | 0.00 | 0.00 | 0.00 | 86 | 1024.3 |
| 20260509073223 | 51 | 141 | 0.0 | 0.0 | 0.00 | 0.00 | 0.00 | 86 | 1024.3 |
| 20260509072730 | 51 | 141 | 0.0 | 0.0 | 0.00 | 0.00 | 0.00 | 86 | 1024.3 |
| 20260509072238 | 50 | 141 | 0.0 | 0.0 | 0.00 | 0.00 | 0.00 | 86 | 1024.3 |
| 20260509071726 | 50 | 141 | 0.0 | 0.0 | 0.00 | 0.00 | 0.00 | 86 | 1024.3 |
| 20260509071254 | 50 | 141 | 0.0 | 0.0 | 0.00 | 0.00 | 0.00 | 86 | 1024.2 |
| 20260509070731 | 50 | 141 | 0.0 | 0.0 | 0.00 | 0.00 | 0.00 | 86 | 1024.2 |
| 20260509070222 | 50 | 141 | 0.0 | 0.0 | 0.00 | 0.00 | 0.00 | 86 | 1024.1 |
| 20260509065808 | 50 | 141 | 0.0 | 0.0 | 0.00 | 0.00 | 0.00 | 86 | 1024.1 |
| 20260509065225 | 50 | 141 | 0.0 | 0.0 | 0.00 | 0.00 | 0.00 | 86 | 1024.2 |
| 20260509064753 | 49 | 141 | 0.0 | 0.0 | 0.00 | 0.00 | 0.00 | 86 | 1024.1 |
| 20260509064721 | 49 | 141 | 0.0 | 0.0 | 0.00 | 0.00 | 0.00 | 86 | 1024.1 |
| 20260509064309 | 49 | 141 | 0.0 | 0.0 | 0.00 | 0.00 | 0.00 | 86 | 1024.2 |
| 20260509063726 | 49 | 141 | 0.0 | 0.0 | 0.00 | 0.00 | 0.00 | 85 | 1024.1 |
| 20260509063254 | 50 | 141 | 0.0 | 0.0 | 0.00 | 0.00 | 0.00 | 85 | 1024.1 |
| 20260509062810 | 50 | 144 | 0.0 | 0.0 | 0.00 | 0.00 | 0.00 | 85 | 1024.0 |
| 20260509062738 | 50 | 144 | 0.0 | 0.0 | 0.00 | 0.00 | 0.00 | 85 | 1024.0 |
| 20260509062226 | 50 | 144 | 0.0 | 0.0 | 0.00 | 0.00 | 0.00 | 85 | 1024.1 |
| 20260509061734 | 50 | 144 | 0.0 | 0.0 | 0.00 | 0.00 | 0.00 | 84 | 1024.0 |
| 20260509061222 | 50 | 144 | 0.0 | 0.0 | 0.00 | 0.00 | 0.00 | 83 | 1024.0 |
| 20260509060810 | 51 | 144 | 0.0 | 0.0 | 0.00 | 0.00 | 0.00 | 83 | 1023.8 |
| 20260509060227 | 51 | 144 | 0.0 | 0.0 | 0.00 | 0.00 | 0.00 | 83 | 1023.8 |
| 20260509055734 | 51 | 144 | 0.0 | 0.0 | 0.00 | 0.00 | 0.00 | 82 | 1023.8 |
| 20260509055302 | 51 | 144 | 0.0 | 0.0 | 0.00 | 0.00 | 0.00 | 82 | 1023.6 |
| 20260509055230 | 51 | 144 | 0.0 | 0.0 | 0.00 | 0.00 | 0.00 | 82 | 1023.6 |
| 20260509054737 | 51 | 144 | 0.0 | 0.0 | 0.00 | 0.00 | 0.00 | 82 | 1023.7 |
| 20260509054225 | 52 | 144 | 0.0 | 0.0 | 0.00 | 0.00 | 0.00 | 82 | 1023.8 |
| 20260509053737 | 52 | 144 | 0.0 | 0.0 | 0.00 | 0.00 | 0.00 | 82 | 1023.7 |
| 20260509053224 | 52 | 144 | 0.0 | 1.7 | 0.00 | 0.00 | 0.00 | 81 | 1023.7 |
| 20260509052731 | 52 | 144 | 0.0 | 1.7 | 0.00 | 0.00 | 0.00 | 80 | 1023.8 |
| 20260509052239 | 52 | 144 | 0.0 | 1.7 | 0.00 | 0.00 | 0.00 | 80 | 1023.7 |
| 20260509051727 | 52 | 144 | 0.0 | 0.0 | 0.00 | 0.00 | 0.00 | 80 | 1023.7 |
| 20260509051254 | 52 | 144 | 0.0 | 0.0 | 0.00 | 0.00 | 0.00 | 79 | 1023.7 |
| 20260509050731 | 52 | 144 | 0.0 | 0.0 | 0.00 | 0.00 | 0.00 | 79 | 1023.7 |
| 20260509050239 | 53 | 144 | 0.0 | 1.7 | 0.00 | 0.00 | 0.00 | 79 | 1023.6 |
| 20260509045806 | 53 | 144 | 0.0 | 1.7 | 0.00 | 0.00 | 0.00 | 78 | 1023.7 |
| 20260509045223 | 53 | 144 | 0.0 | 1.7 | 0.00 | 0.00 | 0.00 | 78 | 1023.7 |
| 20260509044730 | 53 | 144 | 0.9 | 1.7 | 0.00 | 0.00 | 0.00 | 78 | 1023.7 |
| 20260509044258 | 53 | 284 | 0.0 | 0.0 | 0.00 | 0.00 | 0.00 | 77 | 1023.7 |
| 20260509044226 | 53 | 284 | 0.0 | 0.0 | 0.00 | 0.00 | 0.00 | 77 | 1023.7 |
| 20260509043754 | 53 | 284 | 0.0 | 1.7 | 0.00 | 0.00 | 0.00 | 77 | 1023.6 |
| 20260509043722 | 53 | 284 | 0.0 | 1.7 | 0.00 | 0.00 | 0.00 | 77 | 1023.6 |
| 20260509043309 | 53 | 284 | 0.0 | 1.7 | 0.00 | 0.00 | 0.00 | 77 | 1023.6 |
| 20260509042725 | 53 | 284 | 0.0 | 1.7 | 0.00 | 0.00 | 0.00 | 76 | 1023.6 |
| 20260509042237 | 54 | 324 | 0.0 | 1.7 | 0.00 | 0.00 | 0.00 | 76 | 1023.6 |
| 20260509041725 | 54 | 324 | 0.0 | 1.7 | 0.00 | 0.00 | 0.00 | 75 | 1023.6 |
| 20260509041233 | 54 | 333 | 0.0 | 1.7 | 0.00 | 0.00 | 0.00 | 74 | 1023.6 |
| 20260509040721 | 55 | 336 | 0.0 | 2.6 | 0.00 | 0.00 | 0.00 | 74 | 1023.4 |
| 20260509040229 | 55 | 9 | 0.9 | 2.6 | 0.00 | 0.00 | 0.00 | 73 | 1023.4 |
| 20260509035755 | 55 | 279 | 0.9 | 1.7 | 0.00 | 0.00 | 0.00 | 73 | 1023.3 |
| 20260509035232 | 55 | 215 | 0.0 | 1.7 | 0.00 | 0.00 | 0.00 | 73 | 1023.2 |
| 20260509034740 | 55 | 227 | 0.0 | 1.7 | 0.00 | 0.00 | 0.00 | 72 | 1023.2 |
| 20260509034228 | 56 | 227 | 0.0 | 1.7 | 0.00 | 0.00 | 0.00 | 71 | 1023.2 |
| 20260509033735 | 56 | 227 | 0.0 | 1.7 | 0.00 | 0.00 | 0.00 | 70 | 1023.0 |
| 20260509033227 | 56 | 227 | 0.9 | 1.7 | 0.00 | 0.00 | 0.00 | 69 | 1022.9 |
| 20260509032753 | 57 | 175 | 0.0 | 1.7 | 0.00 | 0.00 | 0.00 | 68 | 1022.8 |
| 20260509032230 | 57 | 213 | 0.0 | 1.7 | 0.00 | 0.00 | 0.00 | 68 | 1022.7 |
| 20260509031738 | 57 | 178 | 0.0 | 3.5 | 0.00 | 0.00 | 0.00 | 67 | 1022.8 |
| 20260509031226 | 57 | 200 | 0.9 | 3.5 | 0.00 | 0.00 | 0.00 | 66 | 1022.9 |
| 20260509030734 | 58 | 205 | 0.0 | 1.7 | 0.00 | 0.00 | 0.00 | 65 | 1022.8 |
| 20260509030222 | 58 | 221 | 0.0 | 3.5 | 0.00 | 0.00 | 0.00 | 65 | 1022.8 |
| 20260509025809 | 58 | 225 | 0.0 | 3.5 | 0.00 | 0.00 | 0.00 | 64 | 1022.9 |
| 20260509025226 | 58 | 257 | 0.9 | 2.6 | 0.00 | 0.00 | 0.00 | 63 | 1022.9 |
| 20260509024734 | 59 | 140 | 0.0 | 2.6 | 0.00 | 0.00 | 0.00 | 63 | 1022.9 |
| 20260509024222 | 59 | 142 | 0.0 | 3.5 | 0.00 | 0.00 | 0.00 | 62 | 1022.8 |
| 20260509023730 | 59 | 289 | 0.0 | 3.5 | 0.00 | 0.00 | 0.00 | 62 | 1022.8 |
| 20260509023222 | 60 | 213 | 0.0 | 1.7 | 0.00 | 0.00 | 0.00 | 61 | 1022.8 |
| 20260509022808 | 60 | 146 | 0.0 | 2.6 | 0.00 | 0.00 | 0.00 | 59 | 1022.6 |
| 20260509022225 | 60 | 22 | 0.0 | 7.0 | 0.00 | 0.00 | 0.00 | 59 | 1022.5 |
| 20260509021753 | 61 | 194 | 1.7 | 7.0 | 0.00 | 0.00 | 0.00 | 58 | 1022.4 |
| 20260509021721 | 61 | 194 | 1.7 | 7.0 | 0.00 | 0.00 | 0.00 | 58 | 1022.4 |
| 20260509021308 | 61 | 275 | 0.0 | 7.0 | 0.00 | 0.00 | 0.00 | 59 | 1022.6 |
| 20260509020725 | 61 | 304 | 2.6 | 7.0 | 0.00 | 0.00 | 0.00 | 57 | 1022.7 |
| 20260509020313 | 61 | 236 | 0.9 | 6.1 | 0.00 | 0.00 | 0.00 | 56 | 1022.7 |
| 20260509015728 | 62 | 60 | 0.9 | 2.6 | 0.00 | 0.00 | 0.00 | 56 | 1022.8 |
| 20260509015236 | 62 | 302 | 0.9 | 1.7 | 0.00 | 0.00 | 0.00 | 56 | 1022.7 |
| 20260509014724 | 61 | 304 | 0.9 | 6.1 | 0.00 | 0.00 | 0.00 | 56 | 1022.6 |
| 20260509014232 | 61 | 282 | 1.7 | 7.0 | 0.00 | 0.00 | 0.00 | 55 | 1022.6 |
| 20260509013800 | 62 | 269 | 0.9 | 4.3 | 0.00 | 0.00 | 0.00 | 56 | 1022.6 |
| 20260509013728 | 62 | 269 | 0.9 | 4.3 | 0.00 | 0.00 | 0.00 | 56 | 1022.6 |
| 20260509013236 | 62 | 51 | 1.7 | 7.0 | 0.00 | 0.00 | 0.00 | 55 | 1022.7 |
| 20260509012723 | 62 | 212 | 0.9 | 5.2 | 0.00 | 0.00 | 0.00 | 55 | 1022.7 |
| 20260509012231 | 62 | 5 | 1.7 | 3.5 | 0.00 | 0.00 | 0.00 | 55 | 1022.6 |
| 20260509011723 | 61 | 282 | 1.7 | 5.2 | 0.00 | 0.00 | 0.00 | 55 | 1022.7 |
| 20260509011231 | 61 | 317 | 1.7 | 5.2 | 0.00 | 0.00 | 0.00 | 55 | 1022.9 |
| 20260509010739 | 62 | 257 | 1.7 | 4.3 | 0.00 | 0.00 | 0.00 | 54 | 1022.9 |
| 20260509010307 | 62 | 219 | 0.9 | 3.5 | 0.00 | 0.00 | 0.00 | 55 | 1023.0 |
| 20260509010235 | 62 | 219 | 0.9 | 3.5 | 0.00 | 0.00 | 0.00 | 55 | 1023.0 |
| 20260509005722 | 62 | 69 | 0.9 | 7.0 | 0.00 | 0.00 | 0.00 | 55 | 1022.9 |
| 20260509005230 | 62 | 134 | 0.9 | 7.0 | 0.00 | 0.00 | 0.00 | 54 | 1023.1 |
| 20260509004738 | 62 | 290 | 2.6 | 9.6 | 0.00 | 0.00 | 0.00 | 54 | 1023.1 |
| 20260509004226 | 62 | 283 | 0.9 | 9.6 | 0.00 | 0.00 | 0.00 | 54 | 1023.0 |
| 20260509003734 | 63 | 277 | 5.2 | 9.6 | 0.00 | 0.00 | 0.00 | 53 | 1023.0 |
| 20260509003222 | 63 | 260 | 1.7 | 7.0 | 0.00 | 0.00 | 0.00 | 53 | 1023.0 |
| 20260509002733 | 63 | 59 | 0.9 | 7.8 | 0.00 | 0.00 | 0.00 | 54 | 1023.0 |
| 20260509002221 | 63 | 260 | 1.7 | 7.8 | 0.00 | 0.00 | 0.00 | 53 | 1022.9 |
| 20260509001809 | 63 | 279 | 1.7 | 7.0 | 0.00 | 0.00 | 0.00 | 53 | 1023.0 |
| 20260509001226 | 63 | 275 | 3.5 | 7.0 | 0.00 | 0.00 | 0.00 | 51 | 1023.0 |
| 20260509000754 | 63 | 279 | 1.7 | 6.1 | 0.00 | 0.00 | 0.00 | 53 | 1022.9 |
| 20260509000722 | 63 | 279 | 1.7 | 6.1 | 0.00 | 0.00 | 0.00 | 53 | 1022.9 |
| 20260509000230 | 63 | 103 | 0.9 | 1.7 | 0.00 | 0.00 | 0.00 | 53 | 1022.9 |
| 20260508235737 | 62 | 167 | 0.9 | 8.7 | 0.00 | 0.00 | 0.00 | 54 | 1022.8 |
| 20260508235306 | 62 | 302 | 1.7 | 8.7 | 0.00 | 0.00 | 0.00 | 54 | 1022.8 |
| 20260508234721 | 62 | 271 | 2.6 | 5.2 | 0.00 | 0.00 | 0.00 | 53 | 1022.7 |
| 20260508234229 | 62 | 304 | 0.9 | 3.5 | 0.00 | 0.00 | 0.00 | 55 | 1022.8 |
| 20260508233757 | 62 | 96 | 1.7 | 3.5 | 0.00 | 0.00 | 0.00 | 52 | 1022.7 |
| 20260508233234 | 62 | 63 | 0.9 | 7.0 | 0.00 | 0.00 | 0.00 | 55 | 1022.9 |
| 20260508232740 | 61 | 59 | 0.9 | 7.0 | 0.00 | 0.00 | 0.00 | 54 | 1022.8 |
| 20260508232228 | 61 | 157 | 1.7 | 7.8 | 0.00 | 0.00 | 0.00 | 53 | 1022.9 |
| 20260508231755 | 62 | 290 | 1.7 | 7.0 | 0.00 | 0.00 | 0.00 | 53 | 1022.9 |
| 20260508231235 | 63 | 101 | 1.7 | 5.2 | 0.00 | 0.00 | 0.00 | 52 | 1022.9 |
| 20260508230802 | 63 | 240 | 2.6 | 9.6 | 0.00 | 0.00 | 0.00 | 51 | 1022.9 |
| 20260508230239 | 63 | 340 | 3.5 | 8.7 | 0.00 | 0.00 | 0.00 | 51 | 1022.9 |
| 20260508225726 | 63 | 198 | 2.6 | 7.0 | 0.00 | 0.00 | 0.00 | 52 | 1022.7 |
| 20260508225234 | 62 | 138 | 2.6 | 7.0 | 0.00 | 0.00 | 0.00 | 53 | 1022.8 |
| 20260508224721 | 62 | 26 | 2.6 | 7.8 | 0.00 | 0.00 | 0.00 | 55 | 1022.9 |
| 20260508224229 | 61 | 262 | 4.3 | 7.8 | 0.00 | 0.00 | 0.00 | 54 | 1022.8 |
| 20260508223737 | 61 | 290 | 3.5 | 7.8 | 0.00 | 0.00 | 0.00 | 54 | 1023.0 |
| 20260508223225 | 61 | 266 | 2.6 | 5.2 | 0.00 | 0.00 | 0.00 | 54 | 1022.9 |
| 20260508222732 | 61 | 246 | 0.9 | 7.0 | 0.00 | 0.00 | 0.00 | 56 | 1022.9 |
| 20260508222300 | 60 | 93 | 1.7 | 8.7 | 0.00 | 0.00 | 0.00 | 54 | 1022.8 |
| 20260508221721 | 61 | 294 | 3.5 | 7.8 | 0.00 | 0.00 | 0.00 | 54 | 1023.0 |
| 20260508221229 | 61 | 286 | 1.7 | 7.8 | 0.00 | 0.00 | 0.00 | 55 | 1023.1 |
| 20260508220756 | 61 | 262 | 2.6 | 7.8 | 0.00 | 0.00 | 0.00 | 55 | 1023.1 |
| 20260508220725 | 61 | 262 | 2.6 | 7.8 | 0.00 | 0.00 | 0.00 | 55 | 1023.1 |
| 20260508220233 | 60 | 266 | 1.7 | 7.8 | 0.00 | 0.00 | 0.00 | 56 | 1022.9 |
| 20260508215800 | 60 | 277 | 3.5 | 7.8 | 0.00 | 0.00 | 0.00 | 55 | 1022.9 |
| 20260508215237 | 60 | 29 | 1.7 | 10.4 | 0.00 | 0.00 | 0.00 | 55 | 1022.9 |
| 20260508214724 | 59 | 276 | 1.7 | 10.4 | 0.00 | 0.00 | 0.00 | 57 | 1022.9 |
| 20260508214232 | 59 | 298 | 4.3 | 8.7 | 0.00 | 0.00 | 0.00 | 57 | 1022.9 |
| 20260508213740 | 59 | 327 | 1.7 | 9.6 | 0.00 | 0.00 | 0.00 | 57 | 1022.8 |
| 20260508213228 | 59 | 246 | 4.3 | 9.6 | 0.00 | 0.00 | 0.00 | 57 | 1022.8 |
| 20260508212735 | 59 | 330 | 2.6 | 9.6 | 0.00 | 0.00 | 0.00 | 56 | 1022.9 |
| 20260508212223 | 60 | 279 | 0.9 | 7.0 | 0.00 | 0.00 | 0.00 | 58 | 1022.8 |
| 20260508211735 | 59 | 259 | 2.6 | 7.0 | 0.00 | 0.00 | 0.00 | 57 | 1022.7 |
| 20260508211223 | 60 | 286 | 1.7 | 5.2 | 0.00 | 0.00 | 0.00 | 56 | 1022.7 |
| 20260508210811 | 60 | 183 | 0.9 | 4.3 | 0.00 | 0.00 | 0.00 | 57 | 1022.6 |
| 20260508210308 | 59 | 304 | 1.7 | 7.0 | 0.00 | 0.00 | 0.00 | 58 | 1022.6 |
| 20260508205723 | 60 | 259 | 1.7 | 6.1 | 0.00 | 0.00 | 0.00 | 56 | 1022.6 |
| 20260508205230 | 59 | 115 | 0.9 | 6.1 | 0.00 | 0.00 | 0.00 | 56 | 1022.5 |
| 20260508204758 | 59 | 246 | 0.9 | 6.1 | 0.00 | 0.00 | 0.00 | 57 | 1022.4 |
| 20260508204234 | 59 | 24 | 0.9 | 6.1 | 0.00 | 0.00 | 0.00 | 57 | 1022.3 |
| 20260508203722 | 59 | 207 | 0.9 | 3.5 | 0.00 | 0.00 | 0.00 | 58 | 1022.3 |
| 20260508203230 | 58 | 99 | 1.7 | 3.5 | 0.00 | 0.00 | 0.00 | 58 | 1022.4 |
| 20260508202737 | 58 | 103 | 0.9 | 4.3 | 0.00 | 0.00 | 0.00 | 59 | 1022.5 |
| 20260508202225 | 58 | 281 | 2.6 | 5.2 | 0.00 | 0.00 | 0.00 | 60 | 1022.4 |
| 20260508201753 | 57 | 233 | 1.7 | 8.7 | 0.00 | 0.00 | 0.00 | 60 | 1022.5 |
| 20260508201230 | 58 | 288 | 2.6 | 8.7 | 0.00 | 0.00 | 0.00 | 59 | 1022.5 |
| 20260508200722 | 58 | 65 | 2.6 | 7.0 | 0.00 | 0.00 | 0.00 | 58 | 1022.6 |
| 20260508200230 | 58 | 9 | 1.7 | 3.5 | 0.00 | 0.00 | 0.00 | 57 | 1022.6 |
| 20260508195756 | 58 | 9 | 1.7 | 6.1 | 0.00 | 0.00 | 0.00 | 59 | 1022.5 |
| 20260508195253 | 58 | 19 | 3.5 | 6.1 | 0.00 | 0.00 | 0.00 | 59 | 1022.4 |
| 20260508194809 | 58 | 360 | 2.6 | 5.2 | 0.00 | 0.00 | 0.00 | 58 | 1022.3 |
| 20260508194225 | 58 | 21 | 1.7 | 7.0 | 0.00 | 0.00 | 0.00 | 58 | 1022.3 |
| 20260508193733 | 58 | 284 | 3.5 | 10.4 | 0.00 | 0.00 | 0.00 | 59 | 1022.2 |
| 20260508193241 | 58 | 336 | 3.5 | 10.4 | 0.00 | 0.00 | 0.00 | 59 | 1022.2 |
| 20260508192808 | 58 | 130 | 1.7 | 5.2 | 0.00 | 0.00 | 0.00 | 61 | 1022.3 |
| 20260508192736 | 58 | 130 | 1.7 | 5.2 | 0.00 | 0.00 | 0.00 | 61 | 1022.3 |